Location: Norton
(51.3000°N, 0.8167°E)
Time: 11:50:56
(UTC+00:00)

Cosmos 1354 Rocket - Pass Details

Date: 03 March 2021
Orbit: 765 x 782 km, 74.0° (Epoch: 13 April)

Event Time Altitude Azimuth Distance (km) Brightness Sun altitude
Rises 18:17:09 0° 337° (NNW) 3,255 7.5 -6.4°
Reaches altitude 10° 18:19:36 10° 343° (NNW) 2,322 6.7 -6.8°
Maximum altitude 18:24:45 51° 59° (ENE) 963 4.2 -7.6°
Drops below altitude 10° 18:29:50 10° 135° (SE) 2,301 6.1 -8.4°
Sets 18:32:15 0° 141° (SE) 3,222 6.8 -8.8°
